EHI
0 0 0 0 0 0 0 0 0 0 0 0 0 0 0 0 0 0 0 0 1 4 9 14 16 14 9 5 2 2 2 1 1 2 1 0 0 0 0 0 1 2 2 2 1 0 1 2 1
0 0 0 0 0 0 0 0 0 0 0 0 0 0 0 0 0 0 0 0 1 5 10 14 17 16 12 7 3 2 2 1 2 2 1 0 0 0 0 0 0 1 2 2 1 1 2 2 1
0 0 0 0 0 0 0 0 0 0 0 0 0 0 0 0 0 0 0 1 3 7 11 15 17 16 13 9 5 2 1 0 1 1 1 0 0 0 0 0 0 1 2 3 3 2 2 1 0
0 0 0 0 0 0 0 0 0 0 0 0 0 0 0 0 0 0 1 2 5 8 10 14 16 14 12 10 6 3 1 0 0 0 0 0 0 0 0 0 0 1 2 4 5 5 3 1 0
0 0 0 0 0 0 0 0 0 0 0 0 0 0 0 0 0 0 1 3 6 7 9 13 15 13 11 9 6 4 2 1 0 0 0 0 0 0 0 0 0 0 1 3 6 6 2 0 0
0 0 0 0 0 0 0 0 0 0 0 0 0 0 0 0 0 0 1 3 6 6 8 12 13 10 8 6 3 2 2 1 0 0 0 0 0 0 0 0 0 0 1 3 6 5 2 0 0
0 0 0 0 0 0 0 0 0 0 0 0 0 0 0 0 0 1 2 4 5 6 7 10 9 7 6 5 2 0 1 0 0 0 0 0 0 0 0 0 0 0 1 3 5 5 2 0 0
0 0 0 0 0 0 0 0 0 0 0 0 0 0 0 0 1 3 5 6 5 5 5 7 7 5 5 4 2 0 1 0 0 0 0 0 0 0 0 0 0 0 0 1 3 4 2 0 0
0 0 0 0 0 0 0 0 0 0 0 0 0 0 0 1 2 4 7 8 7 5 4 5 6 4 4 4 2 0 0 0 0 0 0 0 0 0 0 0 0 0 0 0 1 2 1 0 0
0 0 0 0 0 0 0 0 0 0 0 0 0 0 0 1 3 5 8 9 7 6 6 6 6 4 4 4 3 2 1 1 1 0 0 0 0 0 0 0 0 0 0 0 0 1 0 0 0
0 0 0 0 0 0 0 0 0 0 0 0 0 0 0 1 3 6 8 8 7 6 6 6 5 4 4 5 4 3 3 3 2 1 0 1 2 1 0 0 0 0 0 0 1 1 1 0 0
0 0 0 0 0 0 0 0 0 0 0 0 0 0 0 0 2 6 8 7 6 6 6 6 6 6 7 6 5 4 3 3 2 1 1 3 2 1 0 0 0 0 0 0 1 1 1 0 0
0 0 0 0 0 0 0 0 0 0 0 0 0 0 0 0 1 5 7 6 4 4 5 6 8 9 9 8 5 3 2 2 1 1 1 2 1 0 0 0 0 0 1 1 1 0 0 0 0
0 0 0 0 0 0 0 0 0 0 0 0 0 0 0 0 1 3 5 5 2 1 3 7 8 9 8 7 4 2 1 1 1 0 1 1 0 0 0 0 0 0 1 1 1 0 0 0 0
0 0 0 0 0 0 0 0 0 0 0 0 0 0 0 0 1 3 4 4 2 1 3 5 6 6 5 4 2 1 1 1 1 1 1 1 0 0 0 0 0 0 1 2 1 0 0 0 0
0 0 0 0 0 0 0 0 0 0 0 0 0 0 0 0 1 2 3 3 1 1 2 3 3 3 3 2 2 1 1 1 2 2 1 1 0 0 0 0 0 0 2 3 2 1 0 0 0
0 0 0 0 0 0 0 0 0 0 0 0 0 0 0 0 0 1 1 2 1 0 1 1 1 1 1 1 2 2 1 1 2 2 1 0 0 0 0 0 0 0 1 3 2 1 0 0 0
0 0 0 0 0 0 0 0 0 0 0 0 0 0 0 0 0 0 0 0 0 0 0 0 0 0 0 0 1 1 1 1 1 1 0 0 0 0 0 0 0 0 0 1 2 1 0 0 0
0 0 0 0 0 0 0 0 0 0 0 0 0 0 0 0 0 0 0 0 0 0 0 0 1 0 0 0 0 0 0 1 2 2 1 0 0 0 0 0 0 0 0 1 1 1 0 0 0
0 0 0 0 0 0 0 0 0 0 0 0 0 0 0 0 0 0 0 0 0 0 0 0 0 0 0 0 0 0 0 1 2 3 2 1 0 0 0 0 0 0 0 0 0 0 0 0 0
0 0 0 0 0 0 0 0 0 0 0 0 0 0 0 0 0 0 0 0 0 0 0 0 0 0 0 0 0 0 0 0 1 2 2 1 0 0 0 0 0 0 0 0 0 0 0 0 0
0 0 0 0 0 0 0 0 0 0 0 0 0 0 0 0 0 0 0 0 0 0 0 0 0 0 0 0 0 0 0 0 0 1 1 0 0 0 0 0 0 0 0 0 0 0 0 0 0
0 0 0 0 0 0 0 0 0 0 0 0 0 0 0 0 0 0 0 0 0 0 0 0 0 0 0 0 0 0 0 0 0 0 0 0 0 0 0 0 0 0 0 0 0 0 0 0 0
0 0 0 0 0 0 0 0 0 0 0 0 0 0 0 0 0 0 0 0 0 0 0 0 0 0 0 0 0 0 0 0 0 0 0 0 0 0 0 0 0 0 0 0 0 0 0 0 0
0 0 0 0 0 0 0 0 0 0 0 0 0 0 0 0 0 0 0 0 0 0 0 0 0 0 0 0 0 0 0 0 0 0 0 0 0 0 0 0 0 0 0 0 0 0 0 0 0
0 0 0 0 0 0 0 0 0 0 0 0 0 0 0 0 0 0 0 0 0 0 0 0 0 0 0 1 1 0 0 0 0 0 0 0 0 0 0 0 0 0 0 0 0 0 0 0 0
0 0 0 0 0 0 0 0 0 0 0 0 0 0 0 0 0 0 0 0 0 0 0 0 0 0 1 2 2 1 0 0 0 0 0 0 0 0 0 0 0 0 0 0 0 0 0 0 0
0 0 0 0 0 0 0 0 0 0 0 0 0 0 0 0 0 0 0 0 0 0 0 0 0 0 1 2 3 2 0 0 0 0 0 0 0 0 0 0 0 0 0 0 0 0 0 0 0
0 0 0 0 0 0 0 0 0 0 0 0 0 0 0 0 0 0 0 0 0 0 0 0 0 0 0 1 2 1 0 0 0 0 0 0 0 0 0 0 0 0 0 0 0 0 0 0 0
0 0 0 0 0 0 0 0 0 0 0 0 0 0 0 0 0 0 0 0 0 0 0 0 0 0 0 0 1 0 0 0 0 0 0 0 0 0 0 0 0 0 0 0 0 0 0 0 0
Wind_Speed
0 1 3 3 5 6 10 7 5 5 5 3 3 4 4 4 2 2 5 5 7 10 11 12 10 10 10 10 10 9 9 8 8 8 8 8 8 8 9 10 10 10 10 10 10 11 11 11 12
1 2 3 4 7 9 8 8 9 7 3 3 4 4 4 4 1 3 4 5 8 10 10 10 10 9 10 10 9 9 9 8 8 8 8 8 8 8 8 9 9 10 10 10 10 11 11 11 12
2 2 4 5 8 9 6 6 8 5 3 4 4 3 3 1 2 3 4 7 8 9 9 10 9 9 10 10 9 9 9 8 8 8 7 8 8 8 8 8 9 9 10 10 10 11 11 11 11
3 4 4 7 12 9 6 3 4 6 5 4 4 4 2 1 1 3 6 8 9 9 9 10 8 9 9 9 9 9 9 8 8 7 7 7 8 8 8 8 8 9 9 10 10 11 11 11 11
3 4 7 9 12 8 6 4 4 7 7 6 5 4 3 3 2 4 7 9 9 8 8 9 7 8 9 9 9 9 9 8 8 8 7 8 7 8 8 8 8 9 9 10 10 10 11 11 10
4 5 8 12 12 8 7 7 7 8 6 5 6 5 3 4 4 5 7 8 8 8 8 8 8 7 8 8 8 8 8 8 8 8 7 7 7 7 8 8 9 9 9 10 10 11 11 11 10
5 6 9 10 10 10 7 7 9 9 9 7 5 5 4 5 4 6 7 7 7 8 7 7 8 8 7 7 7 8 7 7 7 7 7 6 6 7 7 7 8 9 9 9 10 11 11 11 10
4 5 8 10 10 9 6 7 6 9 8 3 5 6 4 5 6 7 6 7 7 7 7 7 7 7 7 7 7 7 7 7 7 7 6 6 5 6 6 6 7 8 9 9 10 10 11 10 10
5 8 11 11 9 6 6 7 5 4 5 5 6 4 1 6 8 8 7 7 7 7 7 7 7 7 7 7 7 7 7 7 7 7 7 6 6 6 6 6 6 8 8 9 10 10 10 10 9
8 11 13 7 6 4 6 7 6 6 8 8 7 5 3 7 9 10 10 10 9 9 8 7 7 7 7 5 6 6 6 7 7 7 7 5 5 4 4 7 6 7 8 8 9 9 9 7 6
9 11 8 7 6 5 6 6 6 8 10 10 10 8 7 9 10 10 11 11 10 9 8 8 8 7 7 5 5 4 4 5 6 7 7 5 4 4 4 4 5 6 6 6 7 7 5 5 4
9 11 9 7 6 7 7 6 7 12 10 5 7 7 8 11 11 12 11 10 9 9 9 8 8 8 8 6 5 5 4 4 4 6 7 5 4 4 4 3 4 4 4 5 5 4 6 6 6
14 9 9 9 8 8 9 11 10 12 10 5 5 7 10 12 12 11 10 9 9 9 9 9 8 8 8 7 5 5 5 5 5 5 6 6 5 5 4 4 3 4 4 5 5 5 6 6 6
9 11 10 9 10 9 11 12 12 12 8 8 8 9 11 12 12 11 10 10 10 10 10 9 9 9 8 7 7 6 5 5 5 5 6 7 5 5 4 4 4 4 4 4 4 5 5 5 5
7 9 11 12 12 8 8 15 17 13 9 10 10 10 10 12 12 12 12 11 11 11 10 9 9 9 9 9 8 6 5 6 5 5 6 6 6 6 5 4 4 4 4 5 4 5 5 5 5
8 10 12 10 11 10 10 17 11 9 11 12 11 10 10 11 12 11 11 11 10 10 10 9 8 9 9 8 8 6 6 6 5 5 5 7 7 7 5 4 4 5 4 4 5 5 5 5 5
10 13 14 10 10 10 13 15 7 6 10 12 11 10 9 9 10 10 10 11 11 10 10 10 9 9 9 8 7 6 6 6 6 5 5 7 7 7 6 5 4 5 5 5 5 5 5 5 5
13 14 13 12 8 12 15 15 8 5 9 11 11 10 10 9 10 9 9 9 9 9 10 10 9 9 8 7 6 5 5 5 5 5 6 8 7 8 6 5 6 5 5 5 6 6 5 5 5
10 12 14 10 6 10 15 17 14 9 9 11 10 10 10 10 9 8 8 8 8 8 9 10 9 9 8 6 6 6 6 5 5 5 7 8 8 8 7 6 6 6 5 7 7 7 7 6 5
13 14 14 9 6 9 12 16 14 12 13 11 11 10 10 9 7 7 7 7 8 9 9 9 10 10 9 7 6 5 5 5 5 4 6 8 8 7 7 7 6 6 6 8 8 8 6 4 4
16 16 14 9 5 8 8 13 14 11 11 11 11 10 10 9 9 8 7 8 8 8 9 8 10 10 10 9 6 5 4 4 4 5 5 7 7 7 7 8 7 7 7 7 8 8 8 6 4
15 12 11 10 8 7 8 9 9 9 9 10 10 9 9 8 8 7 7 8 8 8 8 9 9 10 9 9 8 9 7 7 7 5 5 6 7 7 8 8 8 7 6 8 8 8 6 7 6
9 6 10 11 10 9 10 10 8 6 9 9 7 7 7 7 7 7 7 7 7 7 7 8 9 9 9 9 10 10 8 7 5 6 7 6 6 7 7 8 8 8 7 8 8 7 6 6 5
5 4 6 8 8 12 15 13 9 6 8 6 6 6 6 5 5 5 5 5 5 5 6 7 8 8 9 9 10 10 10 9 8 8 7 6 5 5 7 8 7 8 7 8 8 7 7 6 5
8 7 6 8 10 11 9 11 8 2 3 5 5 3 3 2 3 4 5 5 5 5 6 7 8 8 8 9 9 10 10 10 10 9 8 7 5 5 7 7 7 7 7 7 7 7 6 6 6
10 11 8 8 9 7 9 11 4 2 1 3 3 2 1 1 1 2 4 5 5 5 6 7 8 7 8 8 8 8 8 7 6 8 7 7 5 6 7 7 7 7 8 7 7 6 6 5 6
7 9 8 5 4 6 8 5 4 2 1 1 1 1 1 1 0 1 2 3 4 5 6 7 8 7 7 8 8 7 7 7 7 7 7 5 5 5 7 8 8 8 7 7 7 6 6 6 5
5 4 5 6 6 8 7 8 5 5 4 2 1 1 1 1 1 1 0 1 2 3 4 6 7 7 7 7 7 6 7 7 7 6 7 6 6 5 7 7 7 7 7 7 7 6 6 6 5
4 5 5 5 5 5 6 3 1 2 2 2 2 1 1 0 1 1 0 1 1 2 3 4 5 6 6 6 6 6 6 6 6 6 6 6 6 6 7 7 7 7 7 7 7 7 7 6 6
4 4 5 5 5 6 5 1 4 2 2 2 2 2 1 1 1 1 0 1 1 2 2 3 4 5 5 5 5 5 5 5 5 6 6 6 6 6 7 7 7 7 7 7 7 7 7 7 6
Wind_Direction
316 252 227 215 213 223 232 215 209 187 191 195 192 211 223 213 231 58 80 139 144 150 152 152 148 150 149 146 142 139 135 131 131 137 137 135 133 129 127 127 124 122 122 122 119 118 117 115 114
253 219 207 214 228 223 221 212 208 202 157 154 187 213 219 217 33 79 129 143 152 151 153 153 145 150 150 149 146 144 142 138 137 139 140 141 139 134 127 128 129 124 119 118 119 116 115 113 113
167 240 217 210 227 232 218 194 211 189 174 191 188 221 244 193 127 126 127 151 156 153 154 144 151 152 152 152 150 148 147 145 143 142 143 142 140 136 132 128 128 124 120 118 116 116 115 114 114
195 189 212 229 228 231 241 178 177 180 189 205 210 201 194 67 86 117 141 158 158 155 154 145 156 154 154 156 155 153 152 150 148 144 142 142 141 140 136 131 127 124 121 119 118 116 117 116 115
213 210 211 227 233 227 228 228 201 198 190 191 214 221 188 130 117 137 153 161 160 157 154 150 153 155 158 160 157 157 156 154 152 145 144 146 143 140 139 135 130 128 126 124 122 121 118 116 117
192 214 224 229 227 222 222 219 215 221 208 198 214 224 191 135 153 151 159 165 160 159 159 156 153 153 158 162 162 159 155 156 153 149 146 141 141 140 140 140 135 132 132 127 125 122 120 117 115
212 214 236 240 235 227 215 201 216 218 216 205 205 214 181 166 156 157 163 165 163 164 166 163 164 159 154 157 159 157 155 153 150 146 141 132 132 136 138 139 140 136 134 130 127 126 122 118 113
232 226 235 234 233 231 198 196 222 224 227 196 208 220 200 158 152 156 161 168 169 173 175 171 169 169 168 167 159 157 153 150 144 137 129 126 131 139 138 139 137 138 135 132 130 128 123 117 112
211 227 232 224 224 223 184 201 201 228 222 202 217 246 32 136 156 162 167 177 181 182 183 180 175 173 173 174 164 162 156 148 147 141 135 151 160 156 154 137 130 137 136 134 131 128 124 119 112
207 228 232 228 225 217 192 211 200 203 215 217 216 216 186 169 177 183 187 189 192 191 189 187 183 177 177 174 171 173 173 165 170 163 162 166 160 148 144 121 122 129 135 135 132 130 134 137 131
212 233 235 224 220 228 214 219 215 222 225 224 221 205 190 190 193 198 200 199 198 194 192 191 189 184 182 178 178 174 173 173 173 169 166 163 156 150 151 147 143 147 153 150 146 148 149 144 134
223 236 238 231 214 222 229 227 226 230 238 249 244 215 203 205 206 206 206 205 201 199 197 195 192 190 188 184 181 178 174 179 176 171 168 168 162 163 160 161 160 162 163 157 158 157 150 145 139
227 235 233 237 232 236 240 237 243 243 243 254 244 220 217 216 216 213 211 210 206 205 200 196 195 195 189 185 183 183 179 185 179 176 175 174 169 166 165 164 165 165 162 162 157 155 150 146 139
232 235 240 239 236 234 239 245 241 243 234 234 231 228 226 224 221 217 213 212 210 209 206 199 197 196 190 187 185 184 184 180 182 180 179 178 175 169 169 168 167 165 163 164 159 154 150 144 138
231 239 243 234 227 226 234 246 234 239 234 236 237 237 235 230 224 220 217 216 213 211 208 204 200 197 193 192 188 183 182 180 180 180 181 180 177 173 172 170 169 167 162 159 155 153 145 139 136
219 230 237 219 212 209 218 249 239 226 228 238 240 239 237 233 228 225 220 218 215 211 208 204 200 196 196 191 186 183 182 180 178 179 180 181 180 178 173 170 170 169 166 162 156 155 149 141 139
213 227 232 222 203 201 217 252 252 225 228 238 239 239 238 236 231 227 222 217 214 210 206 201 198 194 192 186 184 181 179 182 180 179 182 180 179 179 176 171 167 172 168 163 160 157 154 147 141
217 225 231 228 200 211 226 244 246 236 238 242 241 239 238 238 236 228 219 214 211 208 204 200 194 192 184 178 179 176 176 181 184 183 183 181 179 180 178 173 170 175 170 163 162 154 145 140 136
245 238 240 238 215 223 236 248 251 243 243 245 244 240 238 238 238 227 215 208 203 201 200 197 192 185 178 176 179 180 184 182 184 186 186 184 181 180 180 176 173 179 175 167 163 152 145 139 138
237 239 243 245 219 231 249 255 254 246 241 244 246 243 240 237 228 217 209 206 205 201 199 197 192 185 183 185 184 184 180 184 181 182 187 186 184 182 182 181 178 179 173 169 164 157 154 147 162
231 233 236 240 237 234 259 259 244 235 236 242 246 247 244 239 232 220 211 207 207 206 201 197 192 188 185 182 176 162 164 170 179 180 184 189 187 184 183 184 179 178 177 171 168 168 167 164 166
238 232 234 233 239 234 226 260 244 229 229 233 239 239 240 238 234 227 217 210 206 205 202 198 192 188 187 183 182 180 185 189 192 184 183 182 187 186 184 182 179 177 177 171 171 176 172 169 168
240 236 223 226 236 246 226 245 251 214 228 228 231 231 233 234 230 227 218 213 208 201 196 195 191 188 187 187 187 188 192 194 184 178 179 179 183 187 185 184 178 175 176 172 171 173 174 174 174
213 204 208 217 227 239 227 229 250 214 223 223 226 226 227 234 232 227 218 208 201 193 188 186 184 186 189 189 188 191 190 186 180 180 178 179 178 182 185 184 178 175 174 172 174 174 177 174 170
200 195 192 196 210 232 206 218 242 230 215 227 232 229 229 233 232 222 213 205 198 189 186 183 183 183 185 188 191 192 192 186 185 182 182 179 177 178 183 181 177 173 172 171 173 173 177 176 172
212 214 220 220 218 213 189 219 215 137 212 243 253 246 224 214 223 224 215 207 198 191 188 183 185 186 184 185 189 190 188 182 184 186 182 182 181 179 174 175 174 171 170 170 171 172 176 175 175
206 220 240 268 247 223 202 210 215 187 216 226 243 267 319 325 325 238 212 206 201 193 189 186 185 184 184 183 181 183 183 181 182 182 183 180 177 171 174 175 171 169 171 174 172 177 179 178 178
236 216 207 219 223 223 211 215 211 178 200 226 258 294 326 0 16 356 214 203 202 195 187 182 184 182 181 180 181 178 180 184 182 179 180 176 173 170 173 174 170 169 172 173 171 172 179 177 175
201 203 225 227 250 247 224 200 136 191 205 226 262 303 306 346 3 341 142 147 160 167 171 169 175 174 171 173 177 172 174 179 178 177 180 175 170 170 175 173 171 171 173 174 174 174 175 180 175
240 220 216 226 224 241 252 201 72 22 17 7 354 356 343 357 358 356 55 91 112 130 142 156 164 168 169 167 169 167 165 168 173 176 177 171 172 174 175 174 173 171 171 174 179 178 180 184 184